| time (UTC) | temp C | wind direction | speed KPH | gust KPH | rain 1hr cm | rain 24hr cm | rain mn cm | humidity % | barometer mb |
| 20260504001704 | 13 | 234 | 0.0 | 0.0 | 0.00 | 0.00 | 0.00 | 83 | 1040.8 |
| 20260504001204 | 13 | 234 | 0.0 | 0.0 | 0.00 | 0.00 | 0.00 | 83 | 1040.8 |
| 20260504000704 | 13 | 234 | 0.0 | 0.0 | 0.00 | 0.00 | 0.00 | 83 | 1040.8 |
| 20260504000204 | 14 | 234 | 0.0 | 0.0 | 0.00 | 0.00 | 0.00 | 82 | 1040.7 |
| 20260503235203 | 14 | 241 | 0.0 | 0.0 | 0.00 | 0.00 | 0.00 | 81 | 1040.7 |
| 20260503234704 | 15 | 234 | 0.0 | 0.0 | 0.00 | 0.00 | 0.00 | 80 | 1040.7 |
| 20260503234203 | 15 | 234 | 0.0 | 0.0 | 0.00 | 0.00 | 0.00 | 80 | 1040.7 |
| 20260503233704 | 15 | 241 | 0.0 | 0.0 | 0.00 | 0.00 | 0.00 | 80 | 1040.9 |
| 20260503233204 | 15 | 235 | 0.0 | 0.0 | 0.00 | 0.00 | 0.00 | 79 | 1040.8 |
| 20260503232704 | 15 | 216 | 0.0 | 0.0 | 0.00 | 0.00 | 0.00 | 79 | 1040.8 |
| 20260503231204 | 15 | 246 | 0.0 | 0.0 | 0.00 | 0.00 | 0.00 | 80 | 1040.9 |
| 20260503230703 | 15 | 242 | 0.0 | 0.0 | 0.00 | 0.00 | 0.00 | 79 | 1040.9 |
| 20260503230204 | 15 | 233 | 0.0 | 0.0 | 0.00 | 0.00 | 0.00 | 78 | 1040.9 |
| 20260503225704 | 15 | 225 | 0.0 | 0.0 | 0.00 | 0.00 | 0.00 | 80 | 1040.9 |
| 20260503225204 | 15 | 246 | 0.0 | 0.0 | 0.00 | 0.00 | 0.00 | 80 | 1040.9 |
| 20260503224203 | 15 | 223 | 0.0 | 0.0 | 0.00 | 0.00 | 0.00 | 79 | 1040.9 |
| 20260503223704 | 15 | 229 | 0.0 | 0.0 | 0.00 | 0.00 | 0.00 | 80 | 1040.9 |
| 20260503223204 | 15 | 215 | 0.0 | 0.0 | 0.00 | 0.00 | 0.00 | 79 | 1041.0 |
| 20260503222704 | 15 | 224 | 0.0 | 0.0 | 0.00 | 0.00 | 0.00 | 79 | 1041.0 |
| 20260503222203 | 15 | 214 | 0.0 | 0.0 | 0.00 | 0.00 | 0.00 | 78 | 1041.0 |
| 20260503221704 | 15 | 198 | 0.0 | 0.0 | 0.00 | 0.00 | 0.00 | 79 | 1041.0 |
| 20260503221203 | 15 | 209 | 0.0 | 0.0 | 0.00 | 0.00 | 0.00 | 79 | 1041.0 |
| 20260503220704 | 16 | 237 | 0.0 | 0.0 | 0.00 | 0.00 | 0.00 | 78 | 1041.1 |
| 20260503220204 | 16 | 232 | 0.0 | 0.0 | 0.00 | 0.00 | 0.00 | 79 | 1041.0 |
| 20260503215704 | 16 | 238 | 0.0 | 0.0 | 0.00 | 0.00 | 0.00 | 79 | 1041.1 |
| 20260503215204 | 16 | 243 | 0.0 | 0.0 | 0.00 | 0.00 | 0.00 | 79 | 1041.1 |
| 20260503214704 | 15 | 225 | 0.0 | 0.0 | 0.00 | 0.00 | 0.00 | 78 | 1041.1 |
| 20260503213704 | 16 | 213 | 0.0 | 0.0 | 0.00 | 0.00 | 0.00 | 78 | 1041.0 |
| 20260503213204 | 16 | 239 | 0.0 | 0.0 | 0.00 | 0.00 | 0.00 | 80 | 1041.0 |
| 20260503212704 | 15 | 222 | 0.0 | 0.0 | 0.00 | 0.00 | 0.00 | 78 | 1040.9 |
| 20260503212204 | 16 | 225 | 0.0 | 0.0 | 0.00 | 0.00 | 0.00 | 78 | 1041.0 |
| 20260503211704 | 16 | 239 | 0.0 | 0.0 | 0.00 | 0.00 | 0.00 | 79 | 1040.9 |
| 20260503211203 | 16 | 253 | 0.0 | 0.0 | 0.00 | 0.00 | 0.00 | 78 | 1040.9 |
| 20260503210704 | 16 | 246 | 0.0 | 0.0 | 0.00 | 0.00 | 0.00 | 78 | 1041.0 |
| 20260503210203 | 17 | 249 | 0.0 | 0.0 | 0.00 | 0.00 | 0.00 | 77 | 1041.0 |
| 20260503205704 | 17 | 232 | 0.0 | 0.0 | 0.00 | 0.00 | 0.00 | 77 | 1040.9 |
| 20260503205203 | 17 | 242 | 0.0 | 0.0 | 0.00 | 0.00 | 0.00 | 78 | 1040.9 |
| 20260503204203 | 16 | 231 | 0.0 | 0.0 | 0.00 | 0.00 | 0.00 | 78 | 1041.1 |
| 20260503202704 | 17 | 264 | 0.0 | 0.0 | 0.00 | 0.00 | 0.00 | 78 | 1041.2 |
| 20260503202204 | 16 | 217 | 0.0 | 0.0 | 0.00 | 0.00 | 0.00 | 78 | 1041.2 |
| 20260503201704 | 17 | 228 | 0.0 | 0.0 | 0.00 | 0.00 | 0.00 | 79 | 1041.2 |
| 20260503200703 | 16 | 252 | 0.0 | 0.0 | 0.00 | 0.00 | 0.00 | 79 | 1041.4 |
| 20260503200204 | 16 | 231 | 0.0 | 0.0 | 0.00 | 0.00 | 0.00 | 78 | 1041.6 |
| 20260503195204 | 16 | 228 | 0.0 | 0.0 | 0.00 | 0.00 | 0.00 | 76 | 1041.7 |
| 20260503194704 | 16 | 250 | 0.0 | 0.0 | 0.00 | 0.00 | 0.00 | 79 | 1041.7 |
| 20260503194203 | 16 | 238 | 0.0 | 0.0 | 0.00 | 0.00 | 0.00 | 78 | 1041.8 |
| 20260503193204 | 16 | 206 | 0.0 | 0.0 | 0.00 | 0.03 | 0.00 | 78 | 1042.0 |
| 20260503192704 | 16 | 225 | 0.0 | 0.0 | 0.00 | 0.03 | 0.00 | 78 | 1042.1 |
| 20260503192204 | 16 | 219 | 0.0 | 0.0 | 0.00 | 0.03 | 0.00 | 77 | 1042.1 |
| 20260503191704 | 16 | 260 | 0.0 | 0.0 | 0.00 | 0.03 | 0.00 | 77 | 1042.1 |
| 20260503191204 | 16 | 247 | 0.0 | 0.0 | 0.00 | 0.03 | 0.00 | 79 | 1042.3 |
| 20260503190703 | 16 | 259 | 0.0 | 0.0 | 0.00 | 0.03 | 0.00 | 77 | 1042.4 |
| 20260503190204 | 16 | 268 | 0.0 | 0.0 | 0.00 | 0.03 | 0.00 | 78 | 1042.5 |
| 20260503185704 | 16 | 204 | 0.0 | 0.0 | 0.00 | 0.03 | 0.00 | 78 | 1042.5 |
| 20260503185203 | 16 | 262 | 0.0 | 0.0 | 0.00 | 0.03 | 0.00 | 79 | 1042.6 |
| 20260503184703 | 16 | 263 | 0.0 | 0.0 | 0.00 | 0.03 | 0.00 | 78 | 1042.7 |
| 20260503184204 | 16 | 252 | 0.0 | 0.0 | 0.00 | 0.03 | 0.00 | 79 | 1042.7 |
| 20260503183704 | 16 | 263 | 0.0 | 0.0 | 0.00 | 0.03 | 0.00 | 78 | 1042.7 |
| 20260503183204 | 16 | 245 | 0.0 | 0.0 | 0.00 | 0.03 | 0.00 | 79 | 1042.8 |
| 20260503182704 | 15 | 213 | 0.0 | 0.0 | 0.00 | 0.03 | 0.00 | 79 | 1042.9 |
| 20260503182204 | 15 | 251 | 0.0 | 0.0 | 0.00 | 0.03 | 0.00 | 78 | 1042.8 |
| 20260503181704 | 15 | 290 | 0.0 | 0.0 | 0.00 | 0.03 | 0.00 | 79 | 1043.0 |
| 20260503180704 | 15 | 230 | 0.0 | 0.0 | 0.00 | 0.03 | 0.00 | 78 | 1043.0 |
| 20260503180204 | 16 | 260 | 0.0 | 0.0 | 0.00 | 0.03 | 0.00 | 81 | 1043.1 |
| 20260503175704 | 15 | 233 | 0.0 | 0.0 | 0.00 | 0.03 | 0.00 | 80 | 1043.1 |
| 20260503175204 | 15 | 283 | 0.0 | 0.0 | 0.00 | 0.03 | 0.00 | 79 | 1043.2 |
| 20260503174704 | 16 | 227 | 0.0 | 0.0 | 0.00 | 0.03 | 0.00 | 79 | 1043.3 |
| 20260503174203 | 16 | 212 | 0.0 | 0.0 | 0.00 | 0.03 | 0.00 | 80 | 1043.3 |
| 20260503173704 | 16 | 236 | 0.0 | 0.0 | 0.00 | 0.03 | 0.00 | 80 | 1043.4 |
| 20260503173204 | 16 | 201 | 0.0 | 0.0 | 0.00 | 0.03 | 0.00 | 79 | 1043.3 |
| 20260503172704 | 15 | 265 | 0.0 | 0.0 | 0.00 | 0.03 | 0.00 | 80 | 1043.5 |
| 20260503171704 | 15 | 252 | 0.0 | 0.0 | 0.00 | 0.03 | 0.00 | 81 | 1043.6 |
| 20260503170704 | 15 | 230 | 0.0 | 0.0 | 0.00 | 0.03 | 0.00 | 82 | 1043.6 |
| 20260503170204 | 15 | 211 | 0.0 | 0.0 | 0.00 | 0.03 | 0.00 | 82 | 1043.7 |
| 20260503160204 | 13 | 243 | 0.0 | 0.0 | 0.00 | 0.03 | 0.00 | 83 | 1044.6 |
| 20260503150203 | 11 | 244 | 0.0 | 0.0 | 0.00 | 0.03 | 0.00 | 87 | 1045.2 |
| 20260503140203 | 10 | 240 | 0.0 | 0.0 | 0.00 | 0.03 | 0.00 | 86 | 1045.5 |
| 20260503130703 | 8 | 225 | 0.0 | 0.0 | 0.00 | 0.03 | 0.00 | 96 | 1045.8 |
| 20260503130204 | 8 | 271 | 0.0 | 0.0 | 0.00 | 0.03 | 0.00 | 97 | 1045.9 |
| 20260503120204 | 2 | 301 | 0.0 | 0.0 | 0.00 | 0.03 | 0.00 | 99 | 1046.0 |
| 20260503110704 | -1 | 301 | 0.0 | 0.0 | 0.00 | 0.03 | 0.00 | 99 | 1045.6 |
| 20260503110204 | -1 | 301 | 0.0 | 0.0 | 0.00 | 0.03 | 0.00 | 99 | 1045.6 |
| 20260503100204 | -1 | 301 | 0.0 | 0.0 | 0.00 | 0.05 | 0.00 | 99 | 1045.2 |
| 20260503090204 | -1 | 301 | 0.0 | 0.0 | 0.00 | 0.10 | 0.00 | 99 | 1045.4 |
| 20260503081203 | 0 | 301 | 0.0 | 0.0 | 0.00 | 0.10 | 0.00 | 100 | 1045.5 |
| 20260503080704 | 0 | 301 | 0.0 | 0.0 | 0.00 | 0.10 | 0.00 | 100 | 1045.5 |
| 20260503080203 | 0 | 301 | 0.0 | 0.0 | 0.00 | 0.10 | 0.00 | 100 | 1045.5 |
| 20260503072704 | 0 | 301 | 0.0 | 0.0 | 0.00 | 0.10 | 0.00 | 100 | 1045.4 |
| 20260503072203 | 0 | 301 | 0.0 | 0.0 | 0.00 | 0.10 | 0.00 | 100 | 1045.4 |
| 20260503071704 | 0 | 301 | 0.0 | 0.0 | 0.00 | 0.10 | 0.00 | 100 | 1045.5 |
| 20260503071204 | 0 | 301 | 0.0 | 0.0 | 0.00 | 0.10 | 0.00 | 100 | 1045.5 |
| 20260503070704 | 0 | 301 | 0.0 | 0.0 | 0.00 | 0.10 | 0.00 | 100 | 1045.5 |
| 20260503070204 | 0 | 301 | 0.0 | 0.0 | 0.00 | 0.10 | 0.00 | 100 | 1045.4 |
| 20260503060204 | 0 | 301 | 0.0 | 0.0 | 0.00 | 0.10 | 0.00 | 100 | 1045.8 |
| 20260503054204 | 1 | 301 | 0.0 | 0.0 | 0.00 | 0.10 | 0.00 | 100 | 1045.8 |
| 20260503053204 | 1 | 301 | 0.0 | 0.0 | 0.00 | 0.10 | 0.00 | 100 | 1045.9 |
| 20260503052703 | 1 | 301 | 0.0 | 0.0 | 0.00 | 0.10 | 0.00 | 100 | 1045.9 |
| 20260503052204 | 1 | 301 | 0.0 | 0.0 | 0.00 | 0.10 | 0.00 | 100 | 1045.9 |
| 20260503051703 | 1 | 301 | 0.0 | 0.0 | 0.00 | 0.10 | 0.00 | 100 | 1045.9 |
| 20260503051204 | 1 | 301 | 0.0 | 0.0 | 0.00 | 0.10 | 0.00 | 100 | 1045.9 |
| 20260503050703 | 1 | 301 | 0.0 | 0.0 | 0.00 | 0.10 | 0.00 | 100 | 1046.0 |
| 20260503050204 | 2 | 301 | 0.0 | 0.0 | 0.00 | 0.10 | 0.00 | 100 | 1046.0 |
| 20260503045703 | 2 | 301 | 0.0 | 0.0 | 0.00 | 0.10 | 0.00 | 100 | 1046.1 |
| 20260503045204 | 2 | 301 | 0.0 | 0.0 | 0.00 | 0.10 | 0.00 | 100 | 1046.1 |
| 20260503044703 | 2 | 301 | 0.0 | 0.0 | 0.00 | 0.10 | 0.00 | 100 | 1046.0 |
| 20260503044204 | 2 | 301 | 0.0 | 0.0 | 0.00 | 0.10 | 0.00 | 100 | 1046.1 |
| 20260503043704 | 3 | 301 | 0.0 | 0.0 | 0.00 | 0.10 | 0.00 | 100 | 1046.0 |
| 20260503043204 | 3 | 301 | 0.0 | 0.0 | 0.00 | 0.10 | 0.00 | 100 | 1046.0 |
| 20260503042204 | 3 | 301 | 0.0 | 0.0 | 0.00 | 0.10 | 0.00 | 100 | 1046.1 |
| 20260503041703 | 3 | 301 | 0.0 | 0.0 | 0.00 | 0.10 | 0.00 | 100 | 1046.1 |
| 20260503040704 | 3 | 301 | 0.0 | 0.0 | 0.00 | 0.10 | 0.00 | 100 | 1046.1 |
| 20260503040203 | 3 | 301 | 0.0 | 0.0 | 0.00 | 0.10 | 0.00 | 100 | 1046.2 |
| 20260503035703 | 3 | 301 | 0.0 | 0.0 | 0.00 | 0.10 | 0.10 | 100 | 1046.2 |
| 20260503034204 | 3 | 301 | 0.0 | 0.0 | 0.00 | 0.10 | 0.10 | 100 | 1046.2 |
| 20260503033703 | 3 | 301 | 0.0 | 0.0 | 0.00 | 0.10 | 0.10 | 100 | 1046.1 |
| 20260503032703 | 3 | 301 | 0.0 | 0.0 | 0.00 | 0.10 | 0.10 | 100 | 1046.2 |
| 20260503032204 | 3 | 301 | 0.0 | 0.0 | 0.00 | 0.10 | 0.10 | 100 | 1046.2 |
| 20260503031703 | 3 | 301 | 0.0 | 0.0 | 0.00 | 0.10 | 0.10 | 100 | 1046.3 |
| 20260503031203 | 3 | 301 | 0.0 | 0.0 | 0.00 | 0.10 | 0.10 | 100 | 1046.3 |
| 20260503030204 | 3 | 301 | 0.0 | 0.0 | 0.00 | 0.10 | 0.10 | 100 | 1046.5 |
| 20260503025703 | 3 | 301 | 0.0 | 0.0 | 0.00 | 0.10 | 0.10 | 100 | 1046.4 |
| 20260503025204 | 3 | 301 | 0.0 | 0.0 | 0.00 | 0.10 | 0.10 | 100 | 1046.4 |
| 20260503024203 | 3 | 301 | 0.0 | 0.0 | 0.00 | 0.10 | 0.10 | 100 | 1046.6 |
| 20260503023703 | 3 | 301 | 0.0 | 0.0 | 0.00 | 0.10 | 0.10 | 100 | 1046.6 |
| 20260503023204 | 4 | 301 | 0.0 | 0.0 | 0.00 | 0.10 | 0.10 | 100 | 1046.7 |
| 20260503022703 | 4 | 301 | 0.0 | 0.0 | 0.00 | 0.10 | 0.10 | 100 | 1046.7 |
| 20260503022204 | 4 | 301 | 0.0 | 0.0 | 0.00 | 0.10 | 0.10 | 100 | 1046.7 |
| 20260503021203 | 4 | 301 | 0.0 | 0.0 | 0.00 | 0.10 | 0.10 | 100 | 1046.7 |
| 20260503020704 | 4 | 301 | 0.0 | 0.0 | 0.00 | 0.10 | 0.10 | 100 | 1046.7 |
| 20260503015204 | 5 | 301 | 0.0 | 0.0 | 0.00 | 0.10 | 0.10 | 100 | 1046.6 |
| 20260503014703 | 5 | 301 | 0.0 | 0.0 | 0.00 | 0.10 | 0.10 | 100 | 1046.6 |
| 20260503014203 | 5 | 301 | 0.0 | 0.0 | 0.00 | 0.10 | 0.10 | 100 | 1046.6 |
| 20260503013203 | 5 | 301 | 0.0 | 0.0 | 0.00 | 0.10 | 0.10 | 100 | 1046.5 |
| 20260503012704 | 5 | 301 | 0.0 | 0.0 | 0.00 | 0.10 | 0.10 | 100 | 1046.6 |
| 20260503012204 | 5 | 301 | 0.0 | 0.0 | 0.00 | 0.10 | 0.10 | 100 | 1046.5 |
| 20260503011703 | 5 | 301 | 0.0 | 0.0 | 0.00 | 0.10 | 0.10 | 100 | 1046.5 |
| 20260503011204 | 5 | 301 | 0.0 | 0.0 | 0.00 | 0.10 | 0.10 | 100 | 1046.5 |
| 20260503010704 | 5 | 301 | 0.0 | 0.0 | 0.00 | 0.10 | 0.10 | 100 | 1046.5 |
| 20260503010204 | 5 | 301 | 0.0 | 0.0 | 0.00 | 0.10 | 0.10 | 100 | 1046.4 |
| 20260503005703 | 5 | 301 | 0.0 | 0.0 | 0.00 | 0.10 | 0.10 | 100 | 1046.5 |
| 20260503005204 | 5 | 301 | 0.0 | 0.0 | 0.00 | 0.10 | 0.10 | 99 | 1046.5 |
| 20260503004704 | 5 | 301 | 0.0 | 0.0 | 0.00 | 0.10 | 0.10 | 98 | 1046.4 |
| 20260503004203 | 5 | 301 | 0.0 | 0.0 | 0.00 | 0.10 | 0.10 | 97 | 1046.4 |
| 20260503003705 | 5 | 301 | 0.0 | 0.0 | 0.00 | 0.10 | 0.10 | 97 | 1046.4 |
| 20260503003205 | 5 | 301 | 0.0 | 0.0 | 0.00 | 0.10 | 0.10 | 97 | 1046.3 |
| 20260503002704 | 5 | 301 | 0.0 | 0.0 | 0.00 | 0.10 | 0.10 | 97 | 1046.4 |